Content
SEND FEEDBACK

Daily
Averages
Monthly
Summary
Canada

VANCOUVER - UNIVERSITY, BRITISH COLUMBIA


Home > North America > Canada > British Columbia
Elevation: 249 feet     Latitude: 49 15N     Longitude: 123 15W

WEATHER
 
SELECT A DAY
Number of Records: 199,682;   Date Range: 1/1/95 - 12/20/14
 
SHARE

PRINT THIS DATA

[ ← Previous Day ]
WEATHER ALMANAC - APRIL 26, 2013
[ Next Day → ]
[ °C ]   °F
Weather ElementAverageHighLow
Temperature53.5 °F59 °F (5:00 pm)44.6 °F (6:00 am)
Dewpoint42.4 °F46.4 °F (10:00 am)38 °F (5:00 pm)
Humidity65.8 %82 % (4:00 am)35 % (5:00 pm)
Barometer30.20 in30.25 in (11:00 am)30.15 in (1:00 am)
Wind Speed9.7 mph13.8 mph (9:00 am)
Wind Gust20.7 mph (10:00 am)
Weather ElementAverage
Visibility28.6 mi
Wind DirectionESE (114.1 °)

Weather ElementTotal
Precipitation---
Heating Degree Days13.2 (Base 65)
Growing Degree Days1.8 (Base 50)
Averaged from 27 records on April 26, 2013
WEATHER CONDITIONS BREAKOUT
WIND DIRECTION BREAKOUT
WEATHER BY HOUR - APRIL 26, 2013
[ °C ]   °F
Local TimeTemperatureDewpointHumidityBarometerVisibilityWind DirectionWind SpeedGust SpeedPrecipitationEventsConditions
1:00 AM51.8 °F44.6 °F76 %30.15 in30.0 miEast (100°)6.9 mphPartly Cloudy
2:00 AM50.0 °F42.8 °F76 %30.15 in30.0 miESE (110°)8.1 mphPartly Cloudy
3:00 AM50.0 °F42.8 °F76 %30.16 in30.0 miESE (110°)9.2 mphClear
4:00 AM48.2 °F42.8 °F82 %30.17 in30.0 miEast (90°)5.8 mphClear
5:00 AM46.0 °F41.0 °F77 %30.19 in28.0 miESE (110°)8.1 mphClear
5:00 AM46.4 °F41.0 °F81 %30.19 in30.0 miESE (110°)8.1 mphPartly Cloudy
6:00 AM44.6 °F39.2 °F81 %30.19 in30.0 miEast (100°)8.1 mphPartly Cloudy
7:00 AM48.2 °F42.8 °F82 %30.20 in30.0 miEast (100°)10.4 mphScattered Clouds
8:00 AM50.0 °F44.6 °F82 %30.21 in30.0 miESE (110°)12.7 mphOvercast
9:00 AM53.6 °F44.6 °F72 %30.23 in30.0 miESE (110°)13.8 mphOvercast
10:00 AM55.4 °F46.4 °F72 %30.23 in30.0 miSE (130°)13.8 mph20.7 mphOvercast
11:00 AM55.0 °F45.0 °F60 %30.25 in28.0 miSE (140°)12.7 mphOvercast
11:00 AM55.4 °F44.6 °F67 %30.25 in30.0 miSSE (150°)11.5 mph17.3 mphOvercast
12:00 PM53.6 °F44.6 °F72 %30.25 in30.0 miSE (140°)11.5 mphOvercast
1:00 PM53.6 °F46.4 °F77 %30.24 in30.0 miSE (140°)11.5 mphOvercast
2:00 PM55.4 °F42.8 °F63 %30.24 in30.0 miSE (140°)10.4 mphOvercast
3:00 PM55.4 °F44.6 °F67 %30.23 in30.0 miESE (110°)12.7 mphOvercast
4:00 PM57.2 °F44.6 °F63 %30.22 in30.0 miESE (110°)13.8 mphOvercast
5:00 PM59.0 °F38.0 °F35 %30.21 in28.0 miESE (110°)11.5 mphOvercast
5:00 PM59.0 °F39.2 °F48 %30.21 in30.0 miESE (110°)12.7 mphOvercast
6:00 PM59.0 °F41.0 °F51 %30.20 in30.0 miSE (130°)6.9 mphOvercast
7:00 PM57.2 °F39.2 °F51 %30.18 in30.0 miESE (120°)10.4 mphOvercast
8:00 PM57.2 °F39.2 °F51 %30.18 in30.0 miESE (110°)6.9 mphOvercast
9:00 PM55.4 °F41.0 °F58 %30.19 in30.0 miEast (90°)5.8 mphOvercast
10:00 PM57.2 °F39.2 °F51 %30.18 in20.0 miESE (110°)6.9 mphOvercast
11:00 PM55.0 °F41.0 °F48 %30.18 in19.0 miEast (100°)5.8 mphOvercast
11:00 PM55.4 °F41.0 °F58 %30.18 in20.0 miEast (90°)5.8 mphOvercast
Hourly data recorded from CYVR, located miles away from Vancouver - University, British Columbia







STORIES FROM OUR PARTNERS